E0445 Weather Reports


Display with metric or nautical units.
time (UTC)temp
F
wind
direction
speed
MPH
gust
MPH
rain 1hr
in
rain 24hr
in
rain mn
in
humidity
%
barometer
mb
20260904133037 70 360 3.0 8.0 0.00 0.01 0.00 80 1014.8
20260904132522 70 319 3.0 9.0 0.00 0.01 0.00 82 1014.9
20260904132021 70 308 4.0 9.0 0.00 0.01 0.00 80 1014.9
20260904131017 69 355 2.0 8.0 0.00 0.01 0.00 83 1015.1
20260904130523 69 317 3.0 7.0 0.00 0.01 0.00 83 1015.0
20260904125517 69 336 2.0 8.0 0.00 0.01 0.00 85 1015.1
20260904125019 69 11 2.0 8.0 0.00 0.01 0.00 87 1015.1
20260904124536 69 29 3.0 8.0 0.00 0.01 0.00 90 1015.1
20260904124016 69 0 2.0 7.0 0.00 0.01 0.00 93 1015.2
20260904123516 69 309 2.0 7.0 0.00 0.01 0.00 95 1015.0
20260904123037 68 282 1.0 5.0 0.00 0.01 0.00 96 1015.0
20260904122518 68 346 2.0 5.0 0.00 0.01 0.00 97 1015.0
20260904122018 68 313 2.0 5.0 0.00 0.01 0.00 98 1014.9
20260904121533 68 303 1.0 3.0 0.00 0.01 0.00 99 1015.0
20260904121020 67 0 1.0 3.0 0.00 0.01 0.00 99 1014.9
20260904120519 67 336 0.0 3.0 0.00 0.01 0.00 99 1014.9
20260904115518 67 34 0.0 1.0 0.00 0.01 0.00 99 1014.9
20260904115019 67 0 0.0 0.0 0.00 0.01 0.00 99 1014.8
20260904114534 67 0 0.0 0.0 0.00 0.01 0.00 99 1014.9
20260904114018 67 0 0.0 1.0 0.00 0.01 0.00 99 1014.9
20260904113518 67 0 0.0 2.0 0.00 0.01 0.00 99 1014.9
20260904113043 67 0 0.0 2.0 0.00 0.01 0.00 99 1014.8
20260904112522 67 337 1.0 2.0 0.00 0.01 0.00 99 1014.9
20260904112020 67 336 0.0 1.0 0.00 0.01 0.00 99 1014.8
20260904111537 67 0 0.0 6.0 0.00 0.01 0.00 99 1014.6
20260904111020 67 0 1.0 6.0 0.00 0.01 0.00 99 1014.6
20260904110520 67 279 2.0 5.0 0.00 0.01 0.00 99 1014.8
20260904105518 67 298 1.0 3.0 0.00 0.01 0.00 99 1014.8
20260904105016 66 0 0.0 1.0 0.00 0.01 0.00 99 1014.6
20260904104021 66 0 0.0 0.0 0.00 0.01 0.00 98 1014.3
20260904103517 66 0 0.0 0.0 0.00 0.01 0.00 98 1014.3
20260904102520 67 0 0.0 0.0 0.00 0.01 0.00 98 1014.3
20260904102021 67 0 0.0 0.0 0.00 0.01 0.00 98 1014.2
20260904101025 67 0 0.0 0.0 0.00 0.01 0.00 98 1014.0
20260904100518 67 0 0.0 0.0 0.00 0.01 0.00 98 1014.1
20260904095517 68 0 0.0 0.0 0.00 0.01 0.00 98 1014.2
20260904094020 68 0 0.0 0.0 0.00 0.01 0.00 98 1014.2
20260904093518 68 0 0.0 0.0 0.00 0.01 0.00 98 1014.1
20260904092521 68 0 0.0 0.0 0.00 0.01 0.00 99 1014.1
20260904092020 68 0 0.0 0.0 0.00 0.01 0.00 99 1014.0
20260904091017 68 0 0.0 0.0 0.00 0.01 0.00 99 1013.9
20260904090518 68 0 0.0 0.0 0.00 0.01 0.00 99 1013.9
20260904085019 68 0 0.0 0.0 0.00 0.01 0.00 98 1013.7
20260904084018 68 0 0.0 0.0 0.00 0.01 0.00 99 1013.7
20260904083519 68 0 0.0 0.0 0.00 0.01 0.00 99 1013.7
20260904082517 68 0 0.0 0.0 0.00 0.01 0.00 98 1013.8
20260904081023 68 0 0.0 0.0 0.00 0.01 0.00 98 1013.6
20260904080523 68 0 0.0 0.0 0.00 0.01 0.00 98 1013.6
20260904080127 68 0 0.0 1.0 0.00 0.01 0.00 98 1013.6
20260904075518 68 0 0.0 1.0 0.00 0.01 0.00 98 1013.4
20260904075018 68 0 0.0 1.0 0.00 0.01 0.00 99 1013.4
20260904074016 68 0 0.0 0.0 0.00 0.01 0.00 99 1013.4
20260904073519 68 0 0.0 0.0 0.00 0.01 0.00 99 1013.3
20260904073047 68 0 0.0 0.0 0.00 0.01 0.00 99 1013.3
20260904072517 68 0 0.0 0.0 0.00 0.01 0.00 99 1013.3
20260904072019 68 0 0.0 0.0 0.00 0.01 0.00 99 1013.1
20260904070521 68 0 0.0 0.0 0.00 0.01 0.00 99 1013.3
20260904065523 68 0 0.0 0.0 0.00 0.01 0.00 99 1013.2
20260904065018 68 0 0.0 0.0 0.00 0.01 0.00 99 1013.1
20260904064021 67 0 0.0 0.0 0.00 0.01 0.00 98 1013.2
20260904063517 67 0 0.0 0.0 0.00 0.01 0.00 98 1013.2
20260904063039 67 0 0.0 0.0 0.00 0.01 0.00 98 1013.1
20260904062518 67 0 0.0 0.0 0.00 0.01 0.00 98 1013.1
20260904062018 67 0 0.0 0.0 0.00 0.01 0.00 98 1013.1
20260904060521 67 0 0.0 0.0 0.00 0.01 0.00 98 1013.2
20260904055521 67 0 0.0 0.0 0.00 0.01 0.00 98 1013.2
20260904055020 68 0 0.0 2.0 0.00 0.01 0.00 98 1013.3
20260904054020 68 0 0.0 2.0 0.00 0.01 0.00 98 1013.5
20260904053524 68 0 0.0 0.0 0.00 0.01 0.00 98 1013.4
20260904052019 68 0 0.0 2.0 0.00 0.01 0.00 98 1013.7
20260904051019 68 0 0.0 2.0 0.00 0.01 0.00 98 1013.7
20260904050520 68 0 0.0 2.0 0.00 0.01 0.00 98 1013.8
20260904045518 68 360 0.0 3.0 0.00 0.01 0.00 98 1014.0
20260904045019 68 294 0.0 3.0 0.00 0.01 0.00 98 1014.0
20260904044018 68 294 1.0 5.0 0.00 0.01 0.00 98 1013.7
20260904043520 68 296 1.0 5.0 0.00 0.01 0.00 98 1013.7
20260904043043 68 53 0.0 2.0 0.00 0.01 0.00 98 1013.6
20260904042518 68 0 0.0 2.0 0.00 0.01 0.00 98 1013.5
20260904041022 68 0 0.0 2.0 0.01 0.01 0.00 98 1013.6
20260904040520 68 0 0.0 2.0 0.01 0.01 0.00 98 1013.7
20260904035523 68 63 0.0 2.0 0.01 0.01 0.01 98 1013.7
20260904035020 68 0 0.0 2.0 0.01 0.01 0.01 98 1013.8
20260904034020 68 0 0.0 0.0 0.01 0.01 0.01 98 1013.6
20260904033518 68 0 0.0 0.0 0.01 0.01 0.01 98 1013.8
20260904032518 67 0 0.0 0.0 0.01 0.01 0.01 98 1014.1
20260904032018 67 0 0.0 0.0 0.01 0.01 0.01 98 1014.1
20260904031538 67 0 0.0 0.0 0.00 0.00 0.00 98 1014.1
20260904025520 67 0 0.0 1.0 0.00 0.00 0.00 98 1013.8
20260904025020 68 0 0.0 0.0 0.00 0.00 0.00 98 1013.8
20260904024020 68 0 0.0 2.0 0.00 0.00 0.00 98 1013.9
20260904023520 68 63 0.0 2.0 0.00 0.00 0.00 97 1014.0
20260904022519 68 0 0.0 5.0 0.00 0.00 0.00 97 1014.1
20260904022021 68 28 2.0 5.0 0.00 0.00 0.00 97 1014.3
20260904021537 68 0 0.0 0.0 0.00 0.00 0.00 98 1014.3
20260904021016 68 0 0.0 0.0 0.00 0.00 0.00 97 1014.4
20260904015518 68 0 0.0 0.0 0.00 0.00 0.00 97 1014.6
20260904015022 68 0 0.0 0.0 0.00 0.00 0.00 97 1014.5
20260904014021 68 0 0.0 0.0 0.00 0.00 0.00 97 1014.7
20260904013517 68 0 0.0 0.0 0.00 0.00 0.00 97 1014.7
20260904012519 68 0 0.0 0.0 0.00 0.00 0.00 97 1015.0
20260904012019 68 0 0.0 0.0 0.00 0.00 0.00 97 1015.1
20260904011538 68 0 0.0 0.0 0.00 0.00 0.00 96 1015.1
20260904011020 68 0 0.0 0.0 0.00 0.00 0.00 96 1015.0
20260904010520 68 0 0.0 0.0 0.00 0.00 0.00 96 1015.1
20260904005517 68 0 0.0 0.0 0.00 0.00 0.00 96 1014.9
20260904005017 68 0 0.0 0.0 0.00 0.00 0.00 95 1014.9
20260904004019 68 0 0.0 1.0 0.00 0.00 0.00 95 1014.9
20260904003516 68 0 0.0 3.0 0.00 0.00 0.00 94 1014.7
20260904002521 69 26 1.0 4.0 0.00 0.00 0.00 93 1014.5
20260904002021 69 26 2.0 4.0 0.00 0.00 0.00 93 1014.5
20260904001024 71 346 1.0 3.0 0.00 0.00 0.00 93 1014.5
20260904000520 71 337 1.0 12.0 0.00 0.00 0.00 93 1014.5
20260904000038 72 321 4.0 12.0 0.00 0.00 0.00 93 1014.6
20260903235520 73 306 5.0 11.0 0.00 0.00 0.00 95 1014.9
20260903235018 73 267 1.0 4.0 0.00 0.00 0.00 95 1014.6
20260903234016 73 0 0.0 0.0 0.00 0.00 0.00 94 1014.3
20260903233521 73 0 0.0 1.0 0.00 0.00 0.00 94 1014.0
20260903233037 73 0 0.0 1.0 0.00 0.00 0.00 94 1014.3
20260903232020 74 0 0.0 1.0 0.00 0.00 0.00 93 1014.2
20260903231020 74 0 0.0 1.0 0.00 0.00 0.00 93 1014.2
20260903230520 74 0 0.0 0.0 0.00 0.00 0.00 93 1014.1
20260903225522 75 0 0.0 0.0 0.00 0.00 0.00 93 1013.9
20260903225017 75 0 0.0 1.0 0.00 0.00 0.00 93 1014.1
20260903224535 75 0 0.0 1.0 0.00 0.00 0.00 93 1013.9
20260903224017 75 0 0.0 1.0 0.00 0.00 0.00 93 1013.8
20260903223517 76 0 0.0 0.0 0.00 0.00 0.00 93 1013.7
20260903222520 76 0 0.0 0.0 0.00 0.00 0.00 92 1013.7
20260903222021 76 0 0.0 1.0 0.00 0.00 0.00 92 1013.5
20260903221018 77 0 0.0 1.0 0.00 0.00 0.00 91 1013.7
20260903220516 77 0 0.0 1.0 0.00 0.00 0.00 91 1013.7
20260903220036 77 0 0.0 2.0 0.00 0.00 0.00 90 1013.9
20260903215519 77 0 0.0 2.0 0.00 0.00 0.00 88 1013.8
20260903215018 79 0 0.0 2.0 0.00 0.00 0.00 86 1013.8
20260903213519 80 0 1.0 3.0 0.00 0.00 0.00 79 1013.9
20260903212518 80 306 3.0 8.0 0.00 0.00 0.00 76 1013.7
20260903212017 81 286 2.0 8.0 0.00 0.00 0.00 76 1013.7
20260903211019 82 336 3.0 8.0 0.00 0.00 0.00 76 1013.6
20260903210519 82 360 2.0 8.0 0.00 0.00 0.00 79 1013.7
20260903210034 82 9 1.0 7.0 0.00 0.00 0.00 78 1013.7
20260903205520 81 323 3.0 7.0 0.00 0.00 0.00 76 1013.8
20260903205016 81 227 3.0 7.0 0.00 0.00 0.00 77 1013.8
20260903204024 81 238 2.0 8.0 0.00 0.00 0.00 76 1013.8
20260903203522 82 278 3.0 9.0 0.00 0.00 0.00 76 1013.9
20260903202518 81 309 3.0 8.0 0.00 0.00 0.00 78 1014.1
20260903202021 81 278 4.0 8.0 0.00 0.00 0.00 76 1014.2
20260903201018 81 281 3.0 7.0 0.00 0.00 0.00 77 1014.1
20260903200518 80 284 1.0 4.0 0.00 0.00 0.00 79 1014.1
20260903200034 80 306 1.0 4.0 0.00 0.00 0.00 79 1014.1
20260903195518 80 269 1.0 6.0 0.00 0.00 0.00 79 1014.0
20260903195016 80 269 2.0 6.0 0.00 0.00 0.00 78 1014.0
20260903193520 82 319 2.0 5.0 0.00 0.00 0.00 76 1014.2
20260903192520 81 11 2.0 5.0 0.00 0.00 0.00 79 1014.3
20260903192019 80 29 2.0 4.0 0.00 0.00 0.00 79 1014.2
20260903191020 80 355 1.0 6.0 0.00 0.00 0.00 81 1014.4
20260903190520 79 312 1.0 6.0 0.00 0.00 0.00 79 1014.6
20260903185021 79 292 2.0 6.0 0.00 0.00 0.00 78 1014.7
20260903184021 79 243 3.0 8.0 0.00 0.00 0.00 78 1014.7
20260903183521 80 282 3.0 10.0 0.00 0.00 0.00 77 1014.8
20260903182518 80 214 2.0 8.0 0.00 0.00 0.00 80 1014.9
20260903182018 79 273 3.0 8.0 0.00 0.00 0.00 78 1015.1
20260903181535 79 223 2.0 6.0 0.00 0.00 0.00 81 1015.1
20260903181020 78 240 1.0 6.0 0.00 0.00 0.00 80 1015.2
20260903180520 79 215 2.0 5.0 0.00 0.00 0.00 80 1015.2
20260903175524 77 279 3.0 7.0 0.00 0.00 0.00 82 1015.2
20260903175020 77 285 3.0 7.0 0.00 0.00 0.00 82 1015.4
20260903174019 78 264 2.0 7.0 0.00 0.00 0.00 81 1015.3
20260903173524 78 304 2.0 7.0 0.00 0.00 0.00 82 1015.3
20260903172517 79 196 3.0 5.0 0.00 0.00 0.00 81 1015.2
20260903172017 79 211 2.0 7.0 0.00 0.00 0.00 80 1015.3
20260903171539 79 298 1.0 7.0 0.00 0.00 0.00 84 1015.3
20260903171016 78 219 3.0 7.0 0.00 0.00 0.00 82 1015.4
20260903165520 77 269 2.0 5.0 0.00 0.00 0.00 82 1015.5
20260903165020 77 327 1.0 5.0 0.00 0.00 0.00 84 1015.6
20260903164019 76 0 0.0 5.0 0.00 0.00 0.00 85 1015.7
20260903163516 76 0 1.0 5.0 0.00 0.00 0.00 86 1015.8
20260903163034 76 0 0.0 6.0 0.00 0.00 0.00 85 1015.8
20260903162518 76 196 3.0 6.0 0.00 0.00 0.00 85 1015.9
20260903162024 76 169 2.0 7.0 0.00 0.00 0.00 86 1015.9
20260903160519 75 241 1.0 6.0 0.00 0.00 0.00 85 1015.9
20260903155517 74 189 4.0 8.0 0.00 0.00 0.00 87 1016.3
20260903155020 75 187 3.0 8.0 0.00 0.00 0.00 86 1016.3
20260903154020 74 188 3.0 9.0 0.00 0.00 0.00 87 1016.4
20260903153520 74 294 2.0 9.0 0.00 0.00 0.00 86 1016.4
20260903152524 74 276 2.0 9.0 0.00 0.00 0.00 89 1016.4
20260903152019 74 185 3.0 8.0 0.00 0.00 0.00 89 1016.4
20260903151534 73 265 3.0 8.0 0.00 0.00 0.00 89 1016.4
20260903151016 73 0 0.0 8.0 0.00 0.00 0.00 89 1016.6
20260903145518 72 202 3.0 7.0 0.00 0.00 0.00 90 1016.5
20260903145018 72 184 3.0 6.0 0.00 0.00 0.00 92 1016.5
20260903144018 71 0 0.0 4.0 0.00 0.00 0.00 93 1016.6
20260903143517 70 259 1.0 4.0 0.00 0.00 0.00 94 1016.6
20260903142520 70 0 0.0 4.0 0.00 0.00 0.00 94 1016.7
20260903142016 70 0 1.0 4.0 0.00 0.00 0.00 95 1016.8
20260903141536 70 196 2.0 4.0 0.00 0.00 0.00 95 1016.8
20260903141018 69 214 2.0 7.0 0.00 0.00 0.00 95 1016.8
20260903135518 69 159 2.0 6.0 0.00 0.00 0.00 96 1016.7
20260903135022 69 176 1.0 4.0 0.00 0.00 0.00 96 1016.5
20260903134024 69 184 1.0 4.0 0.00 0.00 0.00 96 1016.5
20260903133524 69 196 1.0 4.0 0.00 0.00 0.00 97 1016.5